Year,Month,Day,Hour,Minute,Value (Times are PST for temperature in C)
2015,03,09,00,00,7.90
2015,03,09,00,01,8.00
2015,03,09,00,02,7.90
2015,03,09,00,03,7.90
2015,03,09,00,04,8.00
2015,03,09,00,05,8.00
2015,03,09,00,06,8.00
2015,03,09,00,07,8.10
2015,03,09,00,08,8.10
2015,03,09,00,09,8.10
2015,03,09,00,10,8.10
2015,03,09,00,11,8.10
2015,03,09,00,12,8.10
2015,03,09,00,13,8.10
2015,03,09,00,14,8.10
2015,03,09,00,15,8.10
2015,03,09,00,16,8.10
2015,03,09,00,17,8.10
2015,03,09,00,18,8.20
2015,03,09,00,19,8.20
2015,03,09,00,20,8.20
2015,03,09,00,21,8.20
2015,03,09,00,22,8.20
2015,03,09,00,23,8.20
2015,03,09,00,24,8.20
2015,03,09,00,25,8.20
2015,03,09,00,26,8.20
2015,03,09,00,27,8.20
2015,03,09,00,28,8.20
2015,03,09,00,29,8.30
2015,03,09,00,30,8.30
2015,03,09,00,31,8.30
2015,03,09,00,32,8.30
2015,03,09,00,33,8.30
2015,03,09,00,34,8.30
2015,03,09,00,35,8.30
2015,03,09,00,36,8.30
2015,03,09,00,37,8.30
2015,03,09,00,38,8.30
2015,03,09,00,39,8.30
2015,03,09,00,40,8.30
2015,03,09,00,41,8.20
2015,03,09,00,42,8.20
2015,03,09,00,43,8.20
2015,03,09,00,44,8.20
2015,03,09,00,45,8.20
2015,03,09,00,46,8.20
2015,03,09,00,47,8.10
2015,03,09,00,48,8.10
2015,03,09,00,49,8.10
2015,03,09,00,50,8.10
2015,03,09,00,51,8.10
2015,03,09,00,52,8.10
2015,03,09,00,53,8.10
2015,03,09,00,54,8.10
2015,03,09,00,55,8.10
2015,03,09,00,56,8.10
2015,03,09,00,57,8.10
2015,03,09,00,58,8.00
2015,03,09,00,59,8.00
2015,03,09,01,00,8.00
2015,03,09,01,01,8.00
2015,03,09,01,02,7.90
2015,03,09,01,03,7.90
2015,03,09,01,04,7.80
2015,03,09,01,05,7.80
2015,03,09,01,06,7.80
2015,03,09,01,07,7.80
2015,03,09,01,08,7.80
2015,03,09,01,09,7.70
2015,03,09,01,10,7.70
2015,03,09,01,11,7.70
2015,03,09,01,12,7.70
2015,03,09,01,13,7.70
2015,03,09,01,14,7.70
2015,03,09,01,15,7.70
2015,03,09,01,16,7.70
2015,03,09,01,17,7.70
2015,03,09,01,18,7.70
2015,03,09,01,19,7.70
2015,03,09,01,20,7.70
2015,03,09,01,21,7.70
2015,03,09,01,22,7.70
2015,03,09,01,23,7.70
2015,03,09,01,24,7.70
2015,03,09,01,25,7.70
2015,03,09,01,26,7.60
2015,03,09,01,27,7.60
2015,03,09,01,28,7.60
2015,03,09,01,29,7.60
2015,03,09,01,30,7.50
2015,03,09,01,31,7.50
2015,03,09,01,32,7.50
2015,03,09,01,33,7.50
2015,03,09,01,34,7.50
2015,03,09,01,35,7.50
2015,03,09,01,36,7.50
2015,03,09,01,37,7.50
2015,03,09,01,38,7.50
2015,03,09,01,39,7.50
2015,03,09,01,40,7.50
2015,03,09,01,41,7.50
2015,03,09,01,42,7.50
2015,03,09,01,43,7.50
2015,03,09,01,44,7.60
2015,03,09,01,45,7.60
2015,03,09,01,46,7.60
2015,03,09,01,47,7.60
2015,03,09,01,48,7.60
2015,03,09,01,49,7.60
2015,03,09,01,50,7.60
2015,03,09,01,51,7.60
2015,03,09,01,52,7.50
2015,03,09,01,53,7.50
2015,03,09,01,54,7.50
2015,03,09,01,55,7.50
2015,03,09,01,56,7.40
2015,03,09,01,57,7.40
2015,03,09,01,58,7.40
2015,03,09,01,59,7.40
2015,03,09,02,00,7.40
2015,03,09,02,01,7.40
2015,03,09,02,02,7.40
2015,03,09,02,03,7.30
2015,03,09,02,04,7.30
2015,03,09,02,05,7.30
2015,03,09,02,06,7.30
2015,03,09,02,07,7.30
2015,03,09,02,08,7.30
2015,03,09,02,09,7.30
2015,03,09,02,10,7.30
2015,03,09,02,11,7.40
2015,03,09,02,12,7.40
2015,03,09,02,13,7.40
2015,03,09,02,14,7.40
2015,03,09,02,15,7.40
2015,03,09,02,16,7.40
2015,03,09,02,17,7.40
2015,03,09,02,18,7.40
2015,03,09,02,19,7.40
2015,03,09,02,20,7.30
2015,03,09,02,21,7.30
2015,03,09,02,22,7.30
2015,03,09,02,23,7.30
2015,03,09,02,24,7.30
2015,03,09,02,25,7.20
2015,03,09,02,26,7.20
2015,03,09,02,27,7.20
2015,03,09,02,28,7.20
2015,03,09,02,29,7.10
2015,03,09,02,30,7.10
2015,03,09,02,31,7.00
2015,03,09,02,32,7.00
2015,03,09,02,33,6.90
2015,03,09,02,34,6.90
2015,03,09,02,35,6.80
2015,03,09,02,36,6.80
2015,03,09,02,37,6.80
2015,03,09,02,38,6.80
2015,03,09,02,39,6.80
2015,03,09,02,40,6.80
2015,03,09,02,41,6.80
2015,03,09,02,42,6.70
2015,03,09,02,43,6.70
2015,03,09,02,44,6.70
2015,03,09,02,45,6.70
2015,03,09,02,46,6.70
2015,03,09,02,47,6.70
2015,03,09,02,48,6.70
2015,03,09,02,49,6.70
2015,03,09,02,50,6.70
2015,03,09,02,51,6.70
2015,03,09,02,52,6.70
2015,03,09,02,53,6.70
2015,03,09,02,54,6.70
2015,03,09,02,55,6.70
2015,03,09,02,56,6.70
2015,03,09,02,57,6.70
2015,03,09,02,58,6.70
2015,03,09,02,59,6.60
2015,03,09,03,00,6.70
2015,03,09,03,01,6.60
2015,03,09,03,02,6.60
2015,03,09,03,03,6.60
2015,03,09,03,04,6.70
2015,03,09,03,05,6.70
2015,03,09,03,06,6.70
2015,03,09,03,07,6.70
2015,03,09,03,08,6.60
2015,03,09,03,09,6.60
2015,03,09,03,10,6.60
2015,03,09,03,11,6.60
2015,03,09,03,12,6.60
2015,03,09,03,13,6.60
2015,03,09,03,14,6.60
2015,03,09,03,15,6.60
2015,03,09,03,16,6.60
2015,03,09,03,17,6.60
2015,03,09,03,18,6.60
2015,03,09,03,19,6.60
2015,03,09,03,20,6.50
2015,03,09,03,21,6.50
2015,03,09,03,22,6.50
2015,03,09,03,23,6.50
2015,03,09,03,24,6.40
2015,03,09,03,25,6.40
2015,03,09,03,26,6.40
2015,03,09,03,27,6.40
2015,03,09,03,28,6.30
2015,03,09,03,29,6.30
2015,03,09,03,30,6.30
2015,03,09,03,31,6.30
2015,03,09,03,32,6.30
2015,03,09,03,33,6.30
2015,03,09,03,34,6.30
2015,03,09,03,35,6.30
2015,03,09,03,36,6.30
2015,03,09,03,37,6.30
2015,03,09,03,38,6.30
2015,03,09,03,39,6.30
2015,03,09,03,40,6.30
2015,03,09,03,41,6.20
2015,03,09,03,42,6.20
2015,03,09,03,43,6.20
2015,03,09,03,44,6.20
2015,03,09,03,45,6.20
2015,03,09,03,46,6.20
2015,03,09,03,47,6.20
2015,03,09,03,48,6.10
2015,03,09,03,49,6.10
2015,03,09,03,50,6.10
2015,03,09,03,51,6.10
2015,03,09,03,52,6.10
2015,03,09,03,53,6.00
2015,03,09,03,54,6.00
2015,03,09,03,55,6.00
2015,03,09,03,56,6.00
2015,03,09,03,57,6.00
2015,03,09,03,58,6.00
2015,03,09,03,59,6.00
2015,03,09,04,00,6.00
2015,03,09,04,01,6.00
2015,03,09,04,02,6.00
2015,03,09,04,03,6.00
2015,03,09,04,04,6.00
2015,03,09,04,05,6.00
2015,03,09,04,06,6.00
2015,03,09,04,07,6.00
2015,03,09,04,08,6.00
2015,03,09,04,09,6.00
2015,03,09,04,10,6.00
2015,03,09,04,11,6.00
2015,03,09,04,12,6.00
2015,03,09,04,13,6.00
2015,03,09,04,14,5.90
2015,03,09,04,15,5.90
2015,03,09,04,16,5.90
2015,03,09,04,17,5.90
2015,03,09,04,18,5.90
2015,03,09,04,19,5.90
2015,03,09,04,20,6.00
2015,03,09,04,21,6.00
2015,03,09,04,22,6.00
2015,03,09,04,23,6.00
2015,03,09,04,24,6.00
2015,03,09,04,25,6.00
2015,03,09,04,26,5.90
2015,03,09,04,27,5.90
2015,03,09,04,28,5.80
2015,03,09,04,29,5.80
2015,03,09,04,30,5.80
2015,03,09,04,31,5.70
2015,03,09,04,32,5.70
2015,03,09,04,33,5.60
2015,03,09,04,34,5.60
2015,03,09,04,35,5.60
2015,03,09,04,36,5.50
2015,03,09,04,37,5.50
2015,03,09,04,38,5.40
2015,03,09,04,39,5.40
2015,03,09,04,40,5.40
2015,03,09,04,41,5.40
2015,03,09,04,42,5.40
2015,03,09,04,43,5.40
2015,03,09,04,44,5.40
2015,03,09,04,45,5.40
2015,03,09,04,46,5.50
2015,03,09,04,47,5.50
2015,03,09,04,48,5.60
2015,03,09,04,49,5.60
2015,03,09,04,50,5.60
2015,03,09,04,51,5.70
2015,03,09,04,52,5.70
2015,03,09,04,53,5.70
2015,03,09,04,54,5.80
2015,03,09,04,55,5.80
2015,03,09,04,56,5.80
2015,03,09,04,57,5.90
2015,03,09,04,58,5.90
2015,03,09,04,59,5.90
2015,03,09,05,00,5.90
2015,03,09,05,01,5.90
2015,03,09,05,02,5.90
2015,03,09,05,03,5.90
2015,03,09,05,04,5.90
2015,03,09,05,05,5.90
2015,03,09,05,06,5.90
2015,03,09,05,07,5.90
2015,03,09,05,08,5.80
2015,03,09,05,09,5.80
2015,03,09,05,10,5.80
2015,03,09,05,11,5.80
2015,03,09,05,12,5.80
2015,03,09,05,13,5.80
2015,03,09,05,14,5.80
2015,03,09,05,15,5.80
2015,03,09,05,16,5.80
2015,03,09,05,17,5.70
2015,03,09,05,18,5.80
2015,03,09,05,19,5.80
2015,03,09,05,20,5.80
2015,03,09,05,21,5.70
2015,03,09,05,22,5.70
2015,03,09,05,23,5.70
2015,03,09,05,24,5.70
2015,03,09,05,25,5.70
2015,03,09,05,26,5.70
2015,03,09,05,27,5.80
2015,03,09,05,28,5.80
2015,03,09,05,29,5.80
2015,03,09,05,30,5.80
2015,03,09,05,31,5.80
2015,03,09,05,32,5.80
2015,03,09,05,33,5.80
2015,03,09,05,34,5.80
2015,03,09,05,35,5.80
2015,03,09,05,36,5.80
2015,03,09,05,37,5.80
2015,03,09,05,38,5.80
2015,03,09,05,39,5.80
2015,03,09,05,40,5.80
2015,03,09,05,41,5.80
2015,03,09,05,42,5.80
2015,03,09,05,43,5.80
2015,03,09,05,44,5.80
2015,03,09,05,45,5.80
2015,03,09,05,46,5.80
2015,03,09,05,47,5.80
2015,03,09,05,48,5.80
2015,03,09,05,49,5.80
2015,03,09,05,50,5.80
2015,03,09,05,51,5.80
2015,03,09,05,52,5.80
2015,03,09,05,53,5.80
2015,03,09,05,54,5.80
2015,03,09,05,55,5.80
2015,03,09,05,56,5.80
2015,03,09,05,57,5.80
2015,03,09,05,58,5.80
2015,03,09,05,59,5.80
2015,03,09,06,00,5.80
2015,03,09,06,01,5.80
2015,03,09,06,02,5.80
2015,03,09,06,03,5.80
2015,03,09,06,04,5.80
2015,03,09,06,05,5.90
2015,03,09,06,06,5.90
2015,03,09,06,07,5.90
2015,03,09,06,08,5.90
2015,03,09,06,09,5.90
2015,03,09,06,10,6.00
2015,03,09,06,11,6.00
2015,03,09,06,12,6.00
2015,03,09,06,13,6.00
2015,03,09,06,14,6.00
2015,03,09,06,15,6.00
2015,03,09,06,16,6.00
2015,03,09,06,17,6.00
2015,03,09,06,18,6.00
2015,03,09,06,19,6.00
2015,03,09,06,20,5.80
2015,03,09,06,21,5.80
2015,03,09,06,22,5.70
2015,03,09,06,23,5.60
2015,03,09,06,24,5.60
2015,03,09,06,25,5.50
2015,03,09,06,26,5.50
2015,03,09,06,27,5.40
2015,03,09,06,28,5.40
2015,03,09,06,29,5.40
2015,03,09,06,30,5.40
2015,03,09,06,31,5.30
2015,03,09,06,32,5.30
2015,03,09,06,33,5.30
2015,03,09,06,34,5.30
2015,03,09,06,35,5.30
2015,03,09,06,36,5.30
2015,03,09,06,37,5.40
2015,03,09,06,38,5.40
2015,03,09,06,39,5.40
2015,03,09,06,40,5.40
2015,03,09,06,41,5.40
2015,03,09,06,42,5.40
2015,03,09,06,43,5.40
2015,03,09,06,44,5.50
2015,03,09,06,45,5.50
2015,03,09,06,46,5.50
2015,03,09,06,47,5.60
2015,03,09,06,48,5.60
2015,03,09,06,49,5.60
2015,03,09,06,50,5.60
2015,03,09,06,51,5.60
2015,03,09,06,52,5.50
2015,03,09,06,53,5.50
2015,03,09,06,54,5.40
2015,03,09,06,55,5.40
2015,03,09,06,56,5.40
2015,03,09,06,57,5.50
2015,03,09,06,58,5.50
2015,03,09,06,59,5.50
2015,03,09,07,00,5.50
2015,03,09,07,01,5.50
2015,03,09,07,02,5.50
2015,03,09,07,03,5.50
2015,03,09,07,04,5.50
2015,03,09,07,05,5.50
2015,03,09,07,06,5.50
2015,03,09,07,07,5.50
2015,03,09,07,08,5.50
2015,03,09,07,09,5.50
2015,03,09,07,10,5.60
2015,03,09,07,11,5.60
2015,03,09,07,12,5.60
2015,03,09,07,13,5.60
2015,03,09,07,14,5.60
2015,03,09,07,15,5.60
2015,03,09,07,16,5.60
2015,03,09,07,17,5.60
2015,03,09,07,18,5.60
2015,03,09,07,19,5.60
2015,03,09,07,20,5.60
2015,03,09,07,21,5.60
2015,03,09,07,22,5.60
2015,03,09,07,23,5.60
2015,03,09,07,24,5.60
2015,03,09,07,25,5.60
2015,03,09,07,26,5.60
2015,03,09,07,27,5.60
2015,03,09,07,28,5.60
2015,03,09,07,29,5.50
2015,03,09,07,30,5.50
2015,03,09,07,31,5.40
2015,03,09,07,32,5.40
2015,03,09,07,33,5.40
2015,03,09,07,34,5.40
2015,03,09,07,35,5.40
2015,03,09,07,36,5.30
2015,03,09,07,37,5.30
2015,03,09,07,38,5.30
2015,03,09,07,39,5.30
2015,03,09,07,40,5.30
2015,03,09,07,41,5.30
2015,03,09,07,42,5.30
2015,03,09,07,43,5.30
2015,03,09,07,44,5.20
2015,03,09,07,45,5.20
2015,03,09,07,46,5.20
2015,03,09,07,47,5.10
2015,03,09,07,48,5.10
2015,03,09,07,49,5.00
2015,03,09,07,50,4.90
2015,03,09,07,51,4.80
2015,03,09,07,52,4.70
2015,03,09,07,53,4.50
2015,03,09,07,54,4.40
2015,03,09,07,55,4.20
2015,03,09,07,56,4.10
2015,03,09,07,57,3.90
2015,03,09,07,58,3.80
2015,03,09,07,59,3.70
2015,03,09,08,00,3.60
2015,03,09,08,01,3.60
2015,03,09,08,02,3.50
2015,03,09,08,03,3.50
2015,03,09,08,04,3.40
2015,03,09,08,05,3.40
2015,03,09,08,06,3.40
2015,03,09,08,07,3.40
2015,03,09,08,08,3.40
2015,03,09,08,09,3.40
2015,03,09,08,10,3.40
2015,03,09,08,11,3.40
2015,03,09,08,12,3.40
2015,03,09,08,13,3.40
2015,03,09,08,14,3.40
2015,03,09,08,15,3.50
2015,03,09,08,16,3.50
2015,03,09,08,17,3.50
2015,03,09,08,18,3.50
2015,03,09,08,19,3.60
2015,03,09,08,20,3.60
2015,03,09,08,21,3.60
2015,03,09,08,22,3.60
2015,03,09,08,23,3.70
2015,03,09,08,24,3.70
2015,03,09,08,25,3.80
2015,03,09,08,26,3.90
2015,03,09,08,27,3.90
2015,03,09,08,28,4.00
2015,03,09,08,29,4.10
2015,03,09,08,30,4.10
2015,03,09,08,31,4.20
2015,03,09,08,32,4.30
2015,03,09,08,33,4.30
2015,03,09,08,34,4.30
2015,03,09,08,35,4.40
2015,03,09,08,36,4.50
2015,03,09,08,37,4.50
2015,03,09,08,38,4.60
2015,03,09,08,39,4.60
2015,03,09,08,40,4.70
2015,03,09,08,41,4.70
2015,03,09,08,42,4.70
2015,03,09,08,43,4.80
2015,03,09,08,44,4.80
2015,03,09,08,45,4.80
2015,03,09,08,46,4.80
2015,03,09,08,47,4.90
2015,03,09,08,48,4.90
2015,03,09,08,49,4.90
2015,03,09,08,50,4.90
2015,03,09,08,51,4.90
2015,03,09,08,52,4.90
2015,03,09,08,53,4.90
2015,03,09,08,54,4.90
2015,03,09,08,55,4.90
2015,03,09,08,56,4.90
2015,03,09,08,57,4.90
2015,03,09,08,58,5.00
2015,03,09,08,59,5.00
2015,03,09,09,00,5.00
2015,03,09,09,01,5.00
2015,03,09,09,02,5.00
2015,03,09,09,03,5.10
2015,03,09,09,04,5.10
2015,03,09,09,05,5.10
2015,03,09,09,06,5.10
2015,03,09,09,07,5.10
2015,03,09,09,08,5.10
2015,03,09,09,09,5.10
2015,03,09,09,10,5.10
2015,03,09,09,11,5.20
2015,03,09,09,12,5.20
2015,03,09,09,13,5.20
2015,03,09,09,14,5.20
2015,03,09,09,15,5.30
2015,03,09,09,16,5.30
2015,03,09,09,17,5.30
2015,03,09,09,18,5.30
2015,03,09,09,19,5.30
2015,03,09,09,20,5.30
2015,03,09,09,21,5.40
2015,03,09,09,22,5.40
2015,03,09,09,23,5.40
2015,03,09,09,24,5.40
2015,03,09,09,25,5.40
2015,03,09,09,26,5.50
2015,03,09,09,27,5.50
2015,03,09,09,28,5.50
2015,03,09,09,29,5.50
2015,03,09,09,30,5.50
2015,03,09,09,31,5.50
2015,03,09,09,32,5.50
2015,03,09,09,33,5.50
2015,03,09,09,34,5.50
2015,03,09,09,35,5.50
2015,03,09,09,36,5.50
2015,03,09,09,37,5.50
2015,03,09,09,38,5.60
2015,03,09,09,39,5.60
2015,03,09,09,40,5.60
2015,03,09,09,41,5.60
2015,03,09,09,42,5.60
2015,03,09,09,43,5.60
2015,03,09,09,44,5.60
2015,03,09,09,45,5.60
2015,03,09,09,46,5.60
2015,03,09,09,47,5.60
2015,03,09,09,48,5.60
2015,03,09,09,49,5.60
2015,03,09,09,50,5.60
2015,03,09,09,51,5.60
2015,03,09,09,52,5.60
2015,03,09,09,53,5.70
2015,03,09,09,54,5.70
2015,03,09,09,55,5.70
2015,03,09,09,56,5.70
2015,03,09,09,57,5.70
2015,03,09,09,58,5.70
2015,03,09,09,59,5.70
2015,03,09,10,00,5.60
2015,03,09,10,01,5.60
2015,03,09,10,02,5.60
2015,03,09,10,03,5.60
2015,03,09,10,04,5.60
2015,03,09,10,05,5.60
2015,03,09,10,06,5.60
2015,03,09,10,07,5.60
2015,03,09,10,08,5.60
2015,03,09,10,09,5.60
2015,03,09,10,10,5.60
2015,03,09,10,11,5.60
2015,03,09,10,12,5.60
2015,03,09,10,13,5.70
2015,03,09,10,14,5.70
2015,03,09,10,15,5.70
2015,03,09,10,16,5.70
2015,03,09,10,17,5.70
2015,03,09,10,18,5.80
2015,03,09,10,19,5.80
2015,03,09,10,20,5.80
2015,03,09,10,21,5.80
2015,03,09,10,22,5.90
2015,03,09,10,23,5.90
2015,03,09,10,24,6.00
2015,03,09,10,25,6.00
2015,03,09,10,26,6.00
2015,03,09,10,27,6.10
2015,03,09,10,28,6.10
2015,03,09,10,29,6.10
2015,03,09,10,30,6.10
2015,03,09,10,31,6.10
2015,03,09,10,32,6.10
2015,03,09,10,33,6.10
2015,03,09,10,34,6.20
2015,03,09,10,35,6.20
2015,03,09,10,36,6.20
2015,03,09,10,37,6.20
2015,03,09,10,38,6.30
2015,03,09,10,39,6.40
2015,03,09,10,40,6.50
2015,03,09,10,41,6.60
2015,03,09,10,42,6.60
2015,03,09,10,43,6.60
2015,03,09,10,44,6.70
2015,03,09,10,45,6.70
2015,03,09,10,46,6.80
2015,03,09,10,47,6.90
2015,03,09,10,48,6.90
2015,03,09,10,49,6.90
2015,03,09,10,50,6.90
2015,03,09,10,51,6.90
2015,03,09,10,52,6.90
2015,03,09,10,53,6.90
2015,03,09,10,54,6.90
2015,03,09,10,55,6.90
2015,03,09,10,56,6.90
2015,03,09,10,57,7.00
2015,03,09,10,58,7.00
2015,03,09,10,59,7.10
2015,03,09,11,00,7.20
2015,03,09,11,01,7.30
2015,03,09,11,02,7.40
2015,03,09,11,03,7.50
2015,03,09,11,04,7.50
2015,03,09,11,05,7.60
2015,03,09,11,06,7.60
2015,03,09,11,07,7.70
2015,03,09,11,08,7.80
2015,03,09,11,09,7.80
2015,03,09,11,10,7.90
2015,03,09,11,11,8.00
2015,03,09,11,12,8.00
2015,03,09,11,13,8.10
2015,03,09,11,14,8.10
2015,03,09,11,15,8.10
2015,03,09,11,16,8.20
2015,03,09,11,17,8.20
2015,03,09,11,18,8.30
2015,03,09,11,19,8.30
2015,03,09,11,20,8.40
2015,03,09,11,21,8.40
2015,03,09,11,22,8.50
2015,03,09,11,23,8.60
2015,03,09,11,24,8.60
2015,03,09,11,25,8.70
2015,03,09,11,26,8.80
2015,03,09,11,27,8.80
2015,03,09,11,28,8.90
2015,03,09,11,29,9.00
2015,03,09,11,30,9.00
2015,03,09,11,31,9.10
2015,03,09,11,32,9.10
2015,03,09,11,33,9.20
2015,03,09,11,34,9.20
2015,03,09,11,35,9.20
2015,03,09,11,36,9.30
2015,03,09,11,37,9.30
2015,03,09,11,38,9.30
2015,03,09,11,39,9.40
2015,03,09,11,40,9.40
2015,03,09,11,41,9.40
2015,03,09,11,42,9.40
2015,03,09,11,43,9.50
2015,03,09,11,44,9.50
2015,03,09,11,45,9.60
2015,03,09,11,46,9.60
2015,03,09,11,47,9.70
2015,03,09,11,48,9.70
2015,03,09,11,49,9.80
2015,03,09,11,50,9.90
2015,03,09,11,51,9.90
2015,03,09,11,52,10.00
2015,03,09,11,53,10.10
2015,03,09,11,54,10.10
2015,03,09,11,55,10.20
2015,03,09,11,56,10.30
2015,03,09,11,57,10.40
2015,03,09,11,58,10.40
2015,03,09,11,59,10.50
2015,03,09,12,00,10.50
2015,03,09,12,01,10.60
2015,03,09,12,02,10.60
2015,03,09,12,03,10.60
2015,03,09,12,04,10.60
2015,03,09,12,05,10.60
2015,03,09,12,06,10.60
2015,03,09,12,07,10.60
2015,03,09,12,08,10.60
2015,03,09,12,09,10.60
2015,03,09,12,10,10.70
2015,03,09,12,11,10.70
2015,03,09,12,12,10.70
2015,03,09,12,13,10.80
2015,03,09,12,14,10.90
2015,03,09,12,15,10.90
2015,03,09,12,16,10.90
2015,03,09,12,17,10.90
2015,03,09,12,18,10.90
2015,03,09,12,19,11.00
2015,03,09,12,20,11.00
2015,03,09,12,21,11.10
2015,03,09,12,22,11.10
2015,03,09,12,23,11.20
2015,03,09,12,24,11.20
2015,03,09,12,25,11.20
2015,03,09,12,26,11.20
2015,03,09,12,27,11.20
2015,03,09,12,28,11.30
2015,03,09,12,29,11.20
2015,03,09,12,30,11.20
2015,03,09,12,31,11.20
2015,03,09,12,32,11.20
2015,03,09,12,33,11.20
2015,03,09,12,34,11.20
2015,03,09,12,35,11.20
2015,03,09,12,36,11.20
2015,03,09,12,37,11.30
2015,03,09,12,38,11.30
2015,03,09,12,39,11.30
2015,03,09,12,40,11.30
2015,03,09,12,41,11.30
2015,03,09,12,42,11.40
2015,03,09,12,43,11.40
2015,03,09,12,44,11.40
2015,03,09,12,45,11.50
2015,03,09,12,46,11.50
2015,03,09,12,47,11.50
2015,03,09,12,48,11.50
2015,03,09,12,49,11.50
2015,03,09,12,50,11.60
2015,03,09,12,51,11.60
2015,03,09,12,52,11.60
2015,03,09,12,53,11.60
2015,03,09,12,54,11.60
2015,03,09,12,55,11.60
2015,03,09,12,56,11.60
2015,03,09,12,57,11.60
2015,03,09,12,58,11.60
2015,03,09,12,59,11.60
2015,03,09,13,00,11.60
2015,03,09,13,01,11.60
2015,03,09,13,02,11.60
2015,03,09,13,03,11.60
2015,03,09,13,04,11.60
2015,03,09,13,05,11.50
2015,03,09,13,06,11.50
2015,03,09,13,07,11.50
2015,03,09,13,08,11.40
2015,03,09,13,09,11.40
2015,03,09,13,10,11.40
2015,03,09,13,11,11.40
2015,03,09,13,12,11.50
2015,03,09,13,13,11.50
2015,03,09,13,14,11.50
2015,03,09,13,15,11.60
2015,03,09,13,16,11.70
2015,03,09,13,17,11.70
2015,03,09,13,18,11.70
2015,03,09,13,19,11.70
2015,03,09,13,20,11.60
2015,03,09,13,21,11.60
2015,03,09,13,22,11.50
2015,03,09,13,23,11.50
2015,03,09,13,24,11.50
2015,03,09,13,25,11.50
2015,03,09,13,26,11.60
2015,03,09,13,27,11.60
2015,03,09,13,28,11.60
2015,03,09,13,29,11.60
2015,03,09,13,30,11.60
2015,03,09,13,31,11.60
2015,03,09,13,32,11.70
2015,03,09,13,33,11.70
2015,03,09,13,34,11.80
2015,03,09,13,35,11.80
2015,03,09,13,36,11.80
2015,03,09,13,37,11.80
2015,03,09,13,38,11.90
2015,03,09,13,39,11.90
2015,03,09,13,40,12.10
2015,03,09,13,41,12.10
2015,03,09,13,42,12.20
2015,03,09,13,43,12.20
2015,03,09,13,44,12.20
2015,03,09,13,45,12.20
2015,03,09,13,46,12.10
2015,03,09,13,47,12.10
2015,03,09,13,48,12.10
2015,03,09,13,49,12.00
2015,03,09,13,50,11.90
2015,03,09,13,51,11.90
2015,03,09,13,52,11.90
2015,03,09,13,53,11.80
2015,03,09,13,54,11.80
2015,03,09,13,55,11.80
2015,03,09,13,56,11.80
2015,03,09,13,57,11.70
2015,03,09,13,58,11.70
2015,03,09,13,59,11.70
2015,03,09,14,00,11.70
2015,03,09,14,01,11.70
2015,03,09,14,02,11.80
2015,03,09,14,03,11.90
2015,03,09,14,04,11.90
2015,03,09,14,05,11.90
2015,03,09,14,06,11.90
2015,03,09,14,07,11.90
2015,03,09,14,08,11.90
2015,03,09,14,09,11.80
2015,03,09,14,10,11.80
2015,03,09,14,11,11.80
2015,03,09,14,12,11.80
2015,03,09,14,13,11.80
2015,03,09,14,14,11.80
2015,03,09,14,15,11.80
2015,03,09,14,16,11.90
2015,03,09,14,17,12.00
2015,03,09,14,18,12.00
2015,03,09,14,19,12.10
2015,03,09,14,20,12.20
2015,03,09,14,21,12.30
2015,03,09,14,22,12.30
2015,03,09,14,23,12.30
2015,03,09,14,24,12.30
2015,03,09,14,25,12.30
2015,03,09,14,26,12.30
2015,03,09,14,27,12.30
2015,03,09,14,28,12.30
2015,03,09,14,29,12.40
2015,03,09,14,30,12.40
2015,03,09,14,31,12.30
2015,03,09,14,32,12.30
2015,03,09,14,33,12.30
2015,03,09,14,34,12.20
2015,03,09,14,35,12.20
2015,03,09,14,36,12.20
2015,03,09,14,37,12.20
2015,03,09,14,38,12.20
2015,03,09,14,39,12.20
2015,03,09,14,40,12.20
2015,03,09,14,41,12.20
2015,03,09,14,42,12.20
2015,03,09,14,43,12.30
2015,03,09,14,44,12.30
2015,03,09,14,45,12.20
2015,03,09,14,46,12.20
2015,03,09,14,47,12.20
2015,03,09,14,48,12.20
2015,03,09,14,49,12.20
2015,03,09,14,50,12.30
2015,03,09,14,51,12.30
2015,03,09,14,52,12.30
2015,03,09,14,53,12.20
2015,03,09,14,54,12.20
2015,03,09,14,55,12.10
2015,03,09,14,56,12.00
2015,03,09,14,57,12.00
2015,03,09,14,58,12.00
2015,03,09,14,59,11.90
2015,03,09,15,00,11.90
2015,03,09,15,01,12.00
2015,03,09,15,02,12.00
2015,03,09,15,03,12.00
2015,03,09,15,04,12.00
2015,03,09,15,05,12.00
2015,03,09,15,06,12.00
2015,03,09,15,07,12.00
2015,03,09,15,08,12.00
2015,03,09,15,09,11.90
2015,03,09,15,10,11.90
2015,03,09,15,11,11.90
2015,03,09,15,12,11.90
2015,03,09,15,13,11.80
2015,03,09,15,14,11.80
2015,03,09,15,15,11.80
2015,03,09,15,16,11.70
2015,03,09,15,17,11.60
2015,03,09,15,18,11.60
2015,03,09,15,19,11.50
2015,03,09,15,20,11.50
2015,03,09,15,21,11.50
2015,03,09,15,22,11.40
2015,03,09,15,23,11.40
2015,03,09,15,24,11.40
2015,03,09,15,25,11.30
2015,03,09,15,26,11.30
2015,03,09,15,27,11.30
2015,03,09,15,28,11.30
2015,03,09,15,29,11.30
2015,03,09,15,30,11.30
2015,03,09,15,31,11.30
2015,03,09,15,32,11.30
2015,03,09,15,33,11.40
2015,03,09,15,34,11.50
2015,03,09,15,35,11.60
2015,03,09,15,36,11.60
2015,03,09,15,37,11.60
2015,03,09,15,38,11.70
2015,03,09,15,39,11.70
2015,03,09,15,40,11.70
2015,03,09,15,41,11.80
2015,03,09,15,42,11.80
2015,03,09,15,43,11.70
2015,03,09,15,44,11.70
2015,03,09,15,45,11.60
2015,03,09,15,46,11.60
2015,03,09,15,47,11.50
2015,03,09,15,48,11.50
2015,03,09,15,49,11.40
2015,03,09,15,50,11.40
2015,03,09,15,51,11.40
2015,03,09,15,52,11.30
2015,03,09,15,53,11.40
2015,03,09,15,54,11.40
2015,03,09,15,55,11.40
2015,03,09,15,56,11.50
2015,03,09,15,57,11.50
2015,03,09,15,58,11.60
2015,03,09,15,59,11.70
2015,03,09,16,00,11.70
2015,03,09,16,01,11.60
2015,03,09,16,02,11.60
2015,03,09,16,03,11.60
2015,03,09,16,04,11.60
2015,03,09,16,05,11.70
2015,03,09,16,06,11.70
2015,03,09,16,07,11.70
2015,03,09,16,08,11.80
2015,03,09,16,09,11.90
2015,03,09,16,10,11.90
2015,03,09,16,11,11.90
2015,03,09,16,12,12.00
2015,03,09,16,13,12.00
2015,03,09,16,14,12.00
2015,03,09,16,15,12.00
2015,03,09,16,16,12.10
2015,03,09,16,17,12.10
2015,03,09,16,18,12.10
2015,03,09,16,19,12.10
2015,03,09,16,20,12.10
2015,03,09,16,21,12.10
2015,03,09,16,22,12.10
2015,03,09,16,23,12.10
2015,03,09,16,24,12.10
2015,03,09,16,25,12.10
2015,03,09,16,26,12.10
2015,03,09,16,27,12.10
2015,03,09,16,28,12.10
2015,03,09,16,29,12.00
2015,03,09,16,30,12.00
2015,03,09,16,31,11.90
2015,03,09,16,32,11.90
2015,03,09,16,33,11.90
2015,03,09,16,34,11.80
2015,03,09,16,35,11.80
2015,03,09,16,36,11.80
2015,03,09,16,37,11.80
2015,03,09,16,38,11.80
2015,03,09,16,39,11.80
2015,03,09,16,40,11.80
2015,03,09,16,41,11.80
2015,03,09,16,42,11.80
2015,03,09,16,43,11.80
2015,03,09,16,44,11.90
2015,03,09,16,45,11.90
2015,03,09,16,46,11.90
2015,03,09,16,47,12.00
2015,03,09,16,48,12.00
2015,03,09,16,49,12.00
2015,03,09,16,50,12.00
2015,03,09,16,51,11.90
2015,03,09,16,52,11.90
2015,03,09,16,53,11.80
2015,03,09,16,54,11.80
2015,03,09,16,55,11.80
2015,03,09,16,56,11.80
2015,03,09,16,57,11.80
2015,03,09,16,58,11.80
2015,03,09,16,59,11.80
2015,03,09,17,00,11.80
2015,03,09,17,01,11.90
2015,03,09,17,02,11.90
2015,03,09,17,03,11.90
2015,03,09,17,04,11.90
2015,03,09,17,05,11.90
2015,03,09,17,06,11.90
2015,03,09,17,07,11.90
2015,03,09,17,08,11.90
2015,03,09,17,09,11.90
2015,03,09,17,10,11.90
2015,03,09,17,11,11.90
2015,03,09,17,12,11.90
2015,03,09,17,13,11.90
2015,03,09,17,14,11.90
2015,03,09,17,15,11.90
2015,03,09,17,16,11.90
2015,03,09,17,17,12.00
2015,03,09,17,18,11.90
2015,03,09,17,19,12.00
2015,03,09,17,20,11.90
2015,03,09,17,21,11.90
2015,03,09,17,22,11.90
2015,03,09,17,23,11.80
2015,03,09,17,24,11.80
2015,03,09,17,25,11.80
2015,03,09,17,26,11.80
2015,03,09,17,27,11.80
2015,03,09,17,28,11.70
2015,03,09,17,29,11.70
2015,03,09,17,30,11.70
2015,03,09,17,31,11.70
2015,03,09,17,32,11.70
2015,03,09,17,33,11.70
2015,03,09,17,34,11.70
2015,03,09,17,35,11.70
2015,03,09,17,36,11.70
2015,03,09,17,37,11.70
2015,03,09,17,38,11.60
2015,03,09,17,39,11.60
2015,03,09,17,40,11.60
2015,03,09,17,41,11.60
2015,03,09,17,42,11.60
2015,03,09,17,43,11.60
2015,03,09,17,44,11.60
2015,03,09,17,45,11.60
2015,03,09,17,46,11.60
2015,03,09,17,47,11.60
2015,03,09,17,48,11.60
2015,03,09,17,49,11.60
2015,03,09,17,50,11.60